This is the latest recevied weather packets stored in our database for station/object SQ6RR-12. If no packets are shown the sender has not sent any weather packets the latest 10 day(s).
| Time | Temp. | Humidity | Pressure | Rain* | Wind** | Luminosity | Snow |
|---|---|---|---|---|---|---|---|
| 1777459042 | 9.44° C | 32% | 1027.9 hPa | 0 mm | - | - | - |
| 1777458771 | 8.33° C | 32% | 1028 hPa | 0 mm | - | - | - |
| 1777458512 | 9.44° C | 32% | 1028.1 hPa | 0 mm | - | - | - |
| 1777458243 | 8.89° C | 31% | 1028.1 hPa | 0 mm | - | - | - |
| 1777457967 | 8.89° C | 33% | 1028.1 hPa | 0 mm | - | - | - |
| 1777457698 | 8.89° C | 30% | 1028.2 hPa | 0 mm | - | - | - |
| 1777457413 | 8.89° C | 32% | 1028.2 hPa | 0 mm | - | - | - |
| 1777457156 | 8.89° C | 32% | 1028.1 hPa | 0 mm | - | - | - |
| 1777456875 | 8.89° C | 30% | 1028.2 hPa | 0 mm | - | - | - |
| 1777456596 | 8.89° C | 33% | 1028.2 hPa | 0 mm | - | - | - |
| 1777456328 | 8.89° C | 32% | 1028.1 hPa | 0 mm | - | - | - |
| 1777456047 | 8.89° C | 32% | 1028.2 hPa | 0 mm | - | - | - |
| 1777455807 | 8.89° C | 32% | 1028.2 hPa | 0 mm | - | - | - |
| 1777455531 | 8.33° C | 34% | 1028.3 hPa | 0 mm | - | - | - |
| 1777455249 | 8.33° C | 33% | 1028.2 hPa | 0 mm | - | - | - |
| 1777454987 | 8.89° C | 33% | 1028 hPa | 0 mm | - | - | - |
| 1777454727 | 8.89° C | 36% | 1028.2 hPa | 0 mm | - | - | - |
| 1777454450 | 9.44° C | 35% | 1028.2 hPa | 0 mm | - | - | - |
| 1777454178 | 9.44° C | 36% | 1028.2 hPa | 0 mm | - | - | - |
| 1777453916 | 8.89° C | 38% | 1028.2 hPa | 0 mm | - | - | - |
| 1777453640 | 8.33° C | 36% | 1028.2 hPa | 0 mm | - | - | - |
| 1777453357 | 8.89° C | 35% | 1028.3 hPa | 0 mm | - | - | - |
| 1777453081 | 8.33° C | 41% | 1028.1 hPa | 0 mm | - | - | - |
| 1777452795 | 8.33° C | 43% | 1028.2 hPa | 0 mm | - | - | - |
| 1777452527 | 8.33° C | 41% | 1028.3 hPa | 0 mm | - | - | - |
* Rain latest hour (hover to see other rain measurements)
** Current wind speed in m/s (hover to see current wind gust speed)